{"data":{"norad_id":59349,"epoch":"2026-05-25T03:09:57.875040Z","epoch_age_seconds":63926,"freshness":"FRESH","line1":"1 59349U 24060B   26145.13191985  .00002211  00000+0  89850-4 0  9996","line2":"2 59349  43.0018 188.1556 0001362 269.0289  91.0406 15.27573810121801","mean_motion":15.2757381,"eccentricity":0.0001362,"inclination_deg":43.0018,"raan_deg":188.1556,"arg_perigee_deg":269.0289,"mean_anomaly_deg":91.0406,"bstar":8.985e-5,"rev_number":12180,"period_min":94.267130699236,"perigee_km":482.13313511831,"apogee_km":484.00212725985,"semimajor_km":6861.2046311891,"source":"CELESTRAK","updated_at":"2026-05-25T13:38:18.908316Z"}}